Theta_e
309 311 312 313 312 312 312 311 311 310 311 312 310 310 312 314 308 305 314 322 313 314 314 316 320 329 327 328 336 343 345 345 346 346 345 345 346 348 347 349 351 351 352 355 355 355 357 357 357 358 359 360 360 359 359 360 361 361 361 359 358 358 358 358 357 358 357 358 358 360 360 360 358 357 356 355 355 354 355 353 350 350 350 350 349 349 350
309 310 311 312 311 312 311 312 312 312 312 312 312 312 314 314 314 316 316 319 314 316 317 320 326 329 328 330 339 342 340 339 344 344 345 344 346 346 346 348 349 351 353 355 355 355 356 355 356 356 357 358 357 355 354 356 358 360 361 361 359 358 357 357 358 359 359 360 360 358 357 356 355 355 354 353 353 353 352 352 352 352 352 351 350 349 348
307 309 311 311 311 311 310 311 312 312 312 312 313 314 315 317 315 313 312 314 316 323 328 328 332 335 333 336 336 336 340 340 342 342 343 345 347 346 346 349 350 352 353 353 354 354 353 354 354 355 354 353 353 355 356 359 360 360 360 357 357 357 357 358 358 359 357 355 355 354 354 353 353 353 353 353 352 351 350 351 351 351 350 350 349 349 348
305 309 309 309 310 310 310 310 311 311 311 310 312 311 316 312 312 313 313 313 313 330 331 330 335 332 335 335 336 337 339 339 342 341 344 345 344 345 347 350 351 350 350 350 350 350 352 351 350 351 355 358 356 354 356 355 355 355 353 353 352 353 353 353 352 352 351 351 352 352 353 353 353 353 352 352 350 350 348 348 348 348 347 347 348 348 347
305 309 309 308 308 308 306 308 310 312 312 313 313 321 318 315 315 314 311 312 324 327 331 327 330 328 332 337 335 336 340 341 340 342 341 341 341 345 348 348 348 348 349 350 349 348 348 354 357 352 351 350 349 351 350 351 352 350 351 350 350 349 350 351 351 352 352 352 351 351 351 352 352 351 350 348 348 347 346 346 347 346 347 346 346 346 346
305 309 309 309 305 299 302 319 319 315 312 316 313 312 314 320 316 316 320 321 325 326 328 327 329 332 332 335 338 337 341 341 339 340 341 342 342 343 345 346 347 347 346 346 349 352 350 347 347 347 349 348 349 349 350 350 350 349 348 349 350 350 350 351 351 351 350 351 351 351 351 350 349 348 347 346 346 346 345 346 345 345 345 344 345 346 346
305 310 309 304 298 300 321 322 323 321 324 324 319 326 321 320 319 319 318 321 325 330 331 331 333 333 333 335 338 339 339 342 341 340 342 341 340 341 342 342 344 346 349 350 347 347 346 345 348 350 350 349 348 350 350 348 350 349 349 349 348 349 349 350 351 351 351 349 348 348 348 347 346 346 345 345 344 345 344 344 343 343 343 344 344 344 345
310 308 306 297 300 315 319 321 320 324 323 324 319 319 320 321 321 322 321 326 331 333 331 331 334 333 333 334 337 339 340 342 339 338 338 340 342 342 343 344 346 345 344 344 345 346 346 346 347 346 346 346 347 347 349 350 350 351 350 349 349 349 349 349 349 349 348 348 347 346 345 345 344 343 343 343 343 343 344 343 344 344 344 344 344 344 344
305 306 304 304 314 311 316 315 318 316 318 317 315 310 317 322 325 324 324 329 331 330 331 331 331 333 333 332 330 333 336 338 339 339 339 340 341 340 341 341 340 343 344 345 344 347 345 346 345 345 347 347 347 346 346 347 347 347 346 346 346 346 346 346 346 346 346 345 344 344 343 343 342 341 341 342 342 343 342 342 341 342 343 342 343 343 343
310 305 303 304 304 302 311 318 325 327 331 325 325 319 318 323 325 327 327 329 329 331 331 330 331 333 326 320 327 331 333 334 333 335 335 337 337 337 337 341 342 344 344 345 342 340 340 346 346 348 348 348 347 345 344 345 346 345 345 344 345 344 343 344 344 345 345 344 343 343 342 341 341 341 341 342 342 343 341 340 340 341 342 341 342 342 343
308 308 303 303 302 306 314 322 326 328 328 325 325 314 310 321 326 327 327 329 330 330 329 330 332 325 316 318 328 330 330 331 331 330 331 332 335 337 340 340 342 343 344 342 339 343 344 343 344 346 346 344 343 343 344 345 344 343 342 342 342 341 341 342 342 343 344 343 342 341 340 340 340 340 340 340 341 342 340 340 340 340 340 339 339 340 341
309 307 304 303 308 309 319 324 325 324 330 324 319 304 306 320 326 328 328 330 330 330 332 332 329 321 316 319 326 329 330 330 331 332 331 333 336 338 338 340 343 343 343 342 340 341 343 345 345 344 344 341 343 342 342 343 341 340 340 340 341 342 342 342 342 342 342 342 341 340 340 340 341 340 341 341 341 341 339 339 338 338 338 338 338 338 341
307 307 307 308 311 317 323 322 324 326 326 322 308 302 314 327 327 328 329 331 333 335 333 331 323 329 333 332 332 332 332 331 332 333 335 336 338 339 341 339 342 341 340 338 335 336 342 344 344 344 343 343 341 341 340 339 338 338 340 340 340 340 340 340 340 340 341 340 340 340 340 339 340 340 340 339 340 339 337 337 337 337 337 338 337 337 339
307 308 305 306 310 322 323 324 323 325 319 308 306 324 332 329 330 331 329 329 333 335 336 330 329 332 331 335 332 333 332 332 335 334 335 337 339 341 341 341 340 339 337 338 339 338 341 342 343 342 341 340 339 338 337 336 337 338 339 340 340 339 339 339 338 338 338 339 339 338 338 339 338 337 338 338 337 337 336 336 335 335 336 336 336 336 338
312 310 306 304 297 316 325 323 321 323 318 316 325 331 331 328 328 328 331 331 332 335 333 333 332 329 329 330 330 331 333 333 333 334 336 339 340 340 340 339 340 337 338 338 339 342 341 341 342 340 339 337 336 335 333 335 336 337 337 337 338 337 337 336 337 337 337 338 337 337 336 337 336 335 337 336 337 336 334 334 334 334 334 335 334 334 335
308 305 303 303 318 321 324 321 316 320 325 329 332 326 327 331 328 328 330 333 334 333 334 331 331 330 331 331 332 332 333 333 335 337 338 339 339 338 337 336 338 339 339 340 341 341 341 342 340 339 337 334 333 332 333 335 336 336 336 336 335 335 334 333 334 335 335 336 336 336 335 335 335 333 333 333 333 333 333 333 332 332 332 333 333 333 332
311 313 315 320 325 325 325 324 326 330 330 331 331 328 328 328 328 331 328 330 333 333 334 333 334 331 331 331 331 331 332 333 334 335 336 337 338 338 338 340 341 341 339 339 339 339 339 338 338 338 337 333 332 331 332 334 334 334 333 333 332 332 331 332 333 334 334 334 334 334 334 333 332 331 332 332 331 332 332 332 331 331 331 331 330 331 331
321 321 321 323 324 324 326 327 327 329 327 327 328 327 326 329 331 329 328 329 332 334 337 332 331 330 330 331 330 331 332 333 336 337 335 336 339 339 340 342 340 340 340 338 337 336 336 336 335 336 335 333 330 331 333 333 333 332 331 330 330 330 330 331 331 332 330 331 331 331 331 331 331 331 330 331 330 331 331 330 331 330 330 330 330 330 330
312 306 326 321 324 326 326 326 327 329 329 335 330 330 331 330 330 328 331 333 335 336 336 333 333 333 334 333 334 335 334 334 334 334 336 337 337 338 338 339 339 338 337 335 334 334 333 334 333 333 332 331 332 333 332 331 329 330 330 329 328 328 328 329 329 329 328 327 327 329 331 331 331 331 331 331 330 330 330 330 330 329 330 330 330 330 331
313 314 326 325 324 326 327 327 325 325 329 332 333 335 336 340 338 334 336 336 335 335 331 333 333 331 331 332 332 331 332 333 335 336 337 338 339 340 339 338 336 335 334 332 332 331 330 331 331 331 330 331 331 330 329 329 328 327 327 327 326 326 326 327 327 327 327 328 328 328 329 330 330 330 331 331 330 329 330 330 328 329 329 330 329 330 330
318 320 323 323 324 324 327 328 331 331 330 333 334 335 335 334 335 336 335 333 333 333 332 333 332 330 330 331 331 330 334 334 335 338 339 338 339 338 337 336 334 333 331 330 330 329 329 330 330 330 330 329 329 328 327 327 328 326 325 325 326 326 326 326 326 327 328 329 329 328 329 329 331 331 331 330 331 332 335 334 333 331 332 331 330 329 326
313 313 319 322 316 317 322 323 326 329 333 336 334 334 333 334 336 336 334 334 336 337 336 335 332 330 331 332 333 331 333 336 338 339 338 338 337 336 335 335 334 332 331 330 329 328 328 329 329 329 328 328 328 327 327 327 326 325 325 325 325 325 325 326 326 326 327 327 328 328 328 329 330 331 330 321 326 332 331 330 325 317 315 324 325 322 320
312 319 322 330 327 325 326 325 328 328 331 333 332 332 331 336 338 337 336 335 335 335 334 335 333 333 333 334 334 334 334 338 339 339 337 336 335 334 333 331 331 330 329 329 329 328 328 328 328 328 327 327 327 327 327 327 326 325 325 324 324 324 325 325 325 325 326 326 327 328 329 330 331 330 330 334 313 309 315 322 317 306 304 304 306 311 317
321 324 323 326 327 323 325 328 331 331 332 332 329 332 332 334 337 337 335 336 335 335 335 335 335 335 334 333 333 335 337 337 337 336 336 334 333 332 332 330 329 328 327 327 327 327 327 327 327 327 325 325 325 326 327 327 327 325 324 323 322 324 325 325 325 326 326 327 328 330 332 332 332 331 329 329 332 317 305 313 310 305 305 303 301 301 304
323 329 331 333 331 329 329 331 332 332 334 329 327 329 333 334 335 337 336 336 336 334 333 334 336 335 335 335 337 337 337 337 336 333 332 331 329 330 329 329 328 327 327 327 326 326 326 326 326 326 324 324 326 327 327 326 326 324 324 323 323 324 324 324 325 326 326 327 328 329 330 332 332 332 330 330 330 331 322 305 304 303 304 303 301 300 300
328 329 330 329 328 329 329 326 326 333 334 331 332 331 335 338 338 339 338 337 334 334 335 336 336 337 339 338 338 337 337 335 332 333 331 330 330 329 328 327 327 327 326 326 325 325 326 326 325 324 324 324 326 326 325 325 324 324 323 323 324 323 324 324 325 325 326 327 327 329 330 332 333 333 333 332 331 328 325 326 328 313 301 303 307 305 307
328 330 328 326 323 325 327 323 321 326 333 332 332 337 338 340 339 339 338 337 336 338 338 339 340 340 339 338 337 337 336 333 332 331 331 330 328 327 327 327 327 326 326 325 325 325 324 325 324 323 324 325 326 325 325 325 324 323 323 323 323 324 324 324 324 324 326 327 328 330 332 332 330 330 329 329 327 326 325 324 322 322 323 323 315 308 313
330 330 329 324 321 321 324 330 330 334 335 334 335 336 337 338 339 339 338 338 338 339 338 338 337 337 336 336 335 332 332 331 329 329 329 328 328 328 328 326 326 326 325 324 325 324 324 323 323 323 323 324 325 325 324 323 323 322 322 322 322 322 322 323 324 325 326 329 330 329 329 330 330 328 328 327 325 325 324 323 321 320 320 320 322 316 311
328 329 329 326 326 327 330 333 335 334 335 337 338 336 336 334 332 333 334 336 338 338 337 338 339 338 336 335 334 332 330 330 329 328 328 328 327 327 327 326 325 325 324 324 322 323 323 322 322 322 322 324 323 323 322 322 321 321 321 321 320 321 321 323 323 324 326 329 330 330 328 328 327 326 326 326 326 323 322 320 319 318 317 318 319 319 318
325 329 327 329 328 327 327 327 331 333 334 336 336 335 333 332 331 332 334 336 335 334 337 338 336 335 335 333 332 331 330 329 328 328 327 327 326 326 325 326 325 324 323 322 322 323 322 321 322 321 321 322 322 322 322 321 321 321 321 321 320 321 321 323 324 325 326 329 330 328 328 326 326 325 323 322 320 320 319 318 318 316 315 315 315 315 315
330 332 329 329 326 326 325 327 334 336 336 336 336 333 332 333 333 335 337 336 336 336 336 336 335 334 333 332 331 330 329 329 329 327 326 326 326 325 325 326 323 320 320 320 322 321 321 321 321 321 323 323 322 322 321 320 320 320 320 319 320 321 322 323 324 326 327 328 328 326 326 324 323 322 321 320 319 318 318 317 316 315 315 314 312 313 314
323 323 325 328 327 327 327 331 335 335 336 337 334 332 333 332 334 337 337 336 337 337 336 335 334 333 331 330 330 330 330 329 328 327 325 324 325 325 326 326 324 322 323 322 322 322 322 321 320 321 323 322 322 321 321 320 320 319 318 320 320 321 323 323 324 326 327 327 326 324 325 322 321 320 320 319 318 317 317 317 315 314 314 312 311 311 314
319 321 323 326 328 328 328 333 333 334 338 336 335 336 336 334 337 339 338 338 336 336 335 334 333 332 331 330 330 330 329 328 327 325 324 324 323 324 326 325 325 324 322 322 323 323 323 321 320 322 322 322 321 321 321 320 319 318 318 319 321 322 323 323 323 325 326 324 323 323 322 322 321 320 319 319 318 318 317 316 315 314 313 312 311 312 312
320 320 322 327 328 327 327 329 333 335 338 338 338 338 337 337 339 340 339 338 337 335 335 333 331 330 329 329 330 329 328 326 323 322 323 323 324 324 326 325 324 323 323 324 323 323 323 322 320 321 322 322 321 321 321 320 318 319 319 320 321 321 322 323 324 324 322 322 321 323 321 320 319 319 319 318 318 317 316 315 315 315 313 312 313 313 309
328 325 322 322 325 329 329 330 335 335 337 338 337 339 340 341 342 340 338 337 336 336 334 332 331 330 329 329 328 327 327 324 323 323 323 323 324 326 326 324 323 322 322 322 322 323 325 322 322 322 321 321 320 320 321 319 319 318 320 320 321 321 321 322 321 320 320 320 320 319 319 318 318 319 318 318 317 317 316 315 315 314 313 312 313 315 313
328 328 328 327 328 330 330 330 334 338 339 340 339 338 339 340 340 338 337 338 336 333 332 331 330 329 328 328 326 326 325 324 324 323 324 324 324 326 325 322 321 320 321 321 323 325 325 323 321 320 321 320 319 320 320 319 319 319 320 320 320 320 321 320 320 320 319 319 319 318 318 318 318 318 317 317 316 316 315 315 315 314 314 313 314 314 314
336 331 329 329 331 332 330 331 336 338 339 341 340 339 339 339 338 339 339 337 334 333 331 330 328 328 327 328 327 327 326 325 324 324 324 324 325 324 322 322 321 319 320 318 322 325 325 323 321 321 320 320 319 320 320 320 319 319 319 318 318 319 318 318 318 317 317 318 318 318 318 318 317 317 318 317 317 316 315 315 314 315 314 314 314 314 314
336 336 334 332 332 332 332 333 335 339 341 342 341 340 339 338 339 338 337 334 332 331 330 329 329 329 328 327 327 326 325 325 325 324 324 324 324 322 321 320 318 318 317 319 325 325 323 323 322 321 320 320 319 319 319 319 319 318 317 317 318 318 318 317 317 317 316 316 317 317 316 315 315 315 316 317 317 317 316 315 315 314 314 314 314 314 313
333 335 335 334 333 333 334 335 337 339 339 341 339 339 339 340 339 337 334 333 332 330 329 329 329 327 326 326 324 324 324 324 324 323 323 323 324 321 318 319 320 321 322 325 326 325 324 323 324 322 320 320 320 318 319 319 319 318 318 317 316 317 317 317 316 316 317 317 316 315 315 315 315 315 316 318 318 317 316 315 315 315 314 315 316 315 315
332 333 334 333 332 334 335 336 336 337 339 341 339 338 339 338 336 334 332 331 330 330 329 328 326 324 325 324 324 323 324 324 324 323 323 322 320 319 318 320 322 323 325 324 325 324 322 322 324 322 321 320 319 319 319 318 318 318 317 317 317 317 316 316 316 315 315 315 315 315 315 315 315 316 316 317 318 316 316 316 315 315 315 315 315 315 314
332 333 333 334 333 335 335 336 336 339 340 341 340 340 340 337 335 333 330 329 329 329 328 327 326 324 324 324 323 323 324 323 324 323 323 321 318 316 314 315 320 324 325 324 324 323 322 322 323 322 321 320 319 318 318 318 317 316 317 316 316 315 315 316 315 315 314 314 314 315 315 314 314 315 316 317 318 317 316 315 315 316 316 316 316 316 315
333 334 334 334 334 335 336 338 339 339 339 340 340 340 338 337 334 332 330 329 328 327 328 327 326 326 325 324 323 322 322 323 324 324 325 322 320 316 313 314 321 322 322 321 322 322 323 324 322 321 322 320 318 317 317 318 317 317 317 316 317 317 316 316 316 316 316 316 315 315 314 314 313 314 315 315 315 315 314 315 316 316 317 317 317 317 315
331 333 334 334 335 336 337 338 337 338 338 339 339 338 337 335 333 332 329 328 327 327 326 326 325 324 324 323 322 321 321 322 322 321 322 323 325 323 318 317 321 321 319 320 320 321 321 322 321 320 319 319 319 318 318 320 319 319 319 318 318 318 317 317 316 317 317 317 316 315 314 314 314 315 316 315 314 313 313 314 314 315 315 316 317 316 317
329 331 333 335 336 338 338 337 337 337 336 336 338 337 335 334 333 330 328 327 327 326 325 324 325 324 323 323 321 320 320 320 319 319 318 320 322 324 324 320 320 320 320 318 317 317 318 320 321 319 318 318 318 320 322 320 320 319 319 318 318 318 317 316 316 315 314 314 313 313 312 313 312 313 313 314 314 315 315 315 316 317 316 317 317 317 317
328 330 332 332 334 334 336 336 336 336 336 336 335 335 334 333 332 330 329 328 327 325 324 324 324 324 322 321 321 321 321 322 322 320 318 316 317 318 322 321 320 320 319 319 318 317 317 318 318 319 318 318 318 319 319 319 319 318 318 317 317 316 316 315 314 315 314 314 314 315 314 315 314 315 315 315 316 315 316 316 317 317 317 317 317 317 318
327 329 331 330 332 334 335 336 336 336 334 332 332 332 332 331 330 330 329 329 327 325 325 325 325 324 323 322 323 324 324 324 325 326 324 323 320 321 323 321 321 320 320 320 319 318 317 319 320 321 321 320 319 318 318 318 317 317 317 317 316 315 315 315 316 316 316 316 315 315 315 315 316 316 316 316 316 316 316 315 316 317 317 317 317 317 317
327 327 329 331 333 333 334 334 333 333 332 330 328 328 329 330 329 329 329 330 328 327 326 326 325 325 325 324 322 321 320 320 321 323 323 323 323 323 322 321 322 321 321 322 320 320 319 319 319 321 322 321 321 320 319 319 319 318 318 318 317 317 316 316 317 317 316 316 317 317 317 317 317 317 316 317 317 317 316 316 317 317 317 318 318 317 317
326 327 329 330 331 331 332 331 331 330 330 329 329 328 328 328 328 329 329 328 327 326 325 326 326 325 325 324 324 323 321 320 317 319 323 322 322 322 322 322 320 322 320 320 319 320 321 321 320 321 322 322 321 321 322 320 320 319 319 319 320 319 318 318 318 319 318 318 318 319 317 318 318 318 318 318 318 318 318 318 317 318 318 318 320 319 319
328 327 328 329 329 330 330 330 330 329 329 329 328 327 328 328 329 328 327 327 325 324 323 323 324 324 323 323 323 322 322 323 322 320 323 323 323 322 321 322 323 323 321 321 321 320 319 322 322 321 321 321 321 322 320 320 320 319 320 320 320 320 321 321 321 320 320 319 319 319 319 319 319 320 319 319 319 318 318 319 319 321 320 319 319 319 318
328 327 326 327 327 327 329 328 328 329 330 328 327 327 328 327 324 323 324 323 323 322 321 322 322 322 323 323 323 324 324 324 324 325 324 324 323 323 321 322 323 323 321 321 322 320 321 319 320 321 321 323 322 321 322 322 321 320 320 319 319 319 319 318 319 318 319 320 319 319 319 319 319 318 318 319 319 320 318 319 320 320 320 319 319 320 320
327 326 326 326 328 330 331 331 331 330 328 328 328 328 326 325 323 322 322 322 322 320 319 320 321 321 321 321 322 323 323 323 323 324 324 323 324 323 323 322 322 322 323 321 321 321 323 323 322 322 322 323 322 321 322 322 321 320 321 321 321 320 320 319 319 320 321 320 320 321 320 321 322 321 322 320 320 321 321 321 321 321 322 322 322 321 321
328 328 328 328 329 330 331 331 331 330 329 328 327 325 324 322 321 320 321 323 320 320 319 319 318 320 321 322 321 322 322 322 322 322 324 323 323 323 322 322 322 320 322 323 322 323 322 320 320 321 322 322 322 321 321 320 322 321 321 322 324 320 321 321 321 321 321 321 322 321 320 322 322 321 322 322 322 323 320 321 320 322 320 320 320 322 321
Wind_Speed
19 15 5 2 8 10 12 15 15 18 17 17 17 16 13 9 11 11 3 8 9 8 7 6 2 4 3 3 1 1 2 3 4 4 5 5 6 6 5 4 4 5 6 6 6 7 7 6 6 6 5 4 3 3 3 4 4 6 6 7 7 8 8 8 8 8 8 8 8 8 8 8 8 8 9 9 9 10 10 12 12 13 13 13 13 13 13
16 16 11 4 9 9 11 13 15 15 17 17 18 14 7 12 6 3 4 4 6 5 5 4 5 3 3 2 2 2 3 4 4 5 5 5 5 6 5 5 5 5 5 6 6 7 6 6 6 5 4 3 3 4 5 6 7 6 6 6 7 7 7 7 7 7 7 7 7 7 8 8 8 9 9 9 10 11 12 12 12 12 12 13 13 13 13
14 15 13 9 9 8 11 10 7 11 13 13 10 7 5 4 5 3 3 3 6 2 4 4 4 3 2 1 0 0 1 3 4 4 5 5 5 5 5 5 5 5 5 5 5 5 5 5 4 2 3 4 5 5 4 4 4 3 3 4 5 5 6 6 6 6 6 7 7 8 8 8 9 9 10 10 10 11 12 12 13 12 12 13 12 12 13
11 12 13 14 13 11 12 12 11 10 11 13 10 10 6 9 6 6 5 5 7 5 3 3 2 1 2 2 1 2 2 3 3 3 4 5 5 5 6 6 5 5 5 5 4 4 3 3 3 3 2 1 1 2 2 1 1 1 2 3 4 5 5 6 6 7 7 8 8 8 9 9 10 10 10 10 11 12 12 13 12 12 13 13 13 13 12
10 11 12 14 13 12 13 14 14 12 12 10 9 4 6 5 2 6 7 5 6 4 3 1 2 1 4 2 3 3 4 3 3 3 4 5 5 7 6 6 5 4 4 4 4 3 2 2 2 2 1 0 0 2 2 2 1 2 2 3 4 5 6 6 7 7 7 8 9 9 9 10 9 9 11 12 12 12 13 13 12 12 13 13 13 13 13
10 10 12 12 12 14 11 2 3 8 12 10 10 9 8 6 7 2 3 4 3 3 1 0 3 4 4 3 3 3 3 3 4 4 5 5 7 7 5 5 5 5 3 3 3 4 4 4 3 3 3 3 3 2 1 1 1 2 3 4 5 6 7 7 7 8 8 9 9 9 10 10 10 12 12 13 13 12 12 12 13 13 14 15 14 14 14
9 8 10 12 16 13 5 2 4 6 6 3 4 5 2 6 6 3 3 1 1 3 3 4 4 5 5 5 7 4 4 3 4 5 6 5 5 6 6 5 5 4 3 4 4 5 5 4 4 3 4 2 1 1 1 2 2 3 4 6 7 7 8 8 8 8 9 10 11 11 11 12 12 12 13 13 13 12 12 12 13 13 13 14 13 14 14
5 9 10 13 12 6 5 5 4 5 4 4 5 4 4 5 6 6 5 2 4 4 4 5 4 6 8 8 6 4 4 2 4 6 6 7 6 5 4 5 5 5 5 5 5 5 4 4 4 3 2 1 2 3 3 4 4 4 5 6 7 7 8 8 9 9 10 11 11 11 12 12 13 13 13 13 13 13 12 12 12 12 13 13 14 14 14
9 9 12 12 6 4 6 5 6 8 7 9 9 8 9 9 6 7 5 5 5 5 5 6 6 6 7 7 6 5 5 4 5 5 7 7 6 7 7 8 8 7 6 6 5 5 4 3 3 2 2 2 3 4 5 5 5 6 7 8 8 9 9 9 10 11 11 12 12 13 13 13 13 14 14 14 14 12 13 13 13 13 13 14 13 14 15
10 12 12 11 9 12 9 3 6 7 2 4 3 6 4 5 8 7 6 7 8 7 6 6 6 5 3 4 5 6 6 5 6 7 9 9 8 8 9 8 8 7 6 5 5 3 3 4 4 2 2 3 4 5 6 7 7 7 8 8 8 9 10 11 12 12 12 13 13 13 13 14 14 14 13 13 13 12 13 14 14 14 13 13 14 14 15
10 9 12 11 11 8 4 12 10 8 4 5 5 7 7 8 9 8 7 7 8 7 8 8 6 4 5 3 7 7 7 7 7 7 8 8 8 8 7 7 7 7 5 4 2 4 3 4 4 4 4 5 6 7 7 7 8 8 9 9 10 11 12 12 13 13 12 13 13 14 14 14 14 14 14 14 13 13 13 13 14 14 14 14 14 14 14
8 11 11 12 9 3 5 9 10 9 5 6 6 7 5 12 11 10 8 8 8 7 7 7 4 4 5 2 7 8 8 7 6 6 6 7 8 8 7 8 7 5 4 2 2 4 4 5 5 6 6 6 7 7 8 8 9 10 10 11 12 12 12 12 12 13 12 13 14 14 14 14 14 14 13 13 13 13 13 13 14 14 14 14 15 14 14
11 13 10 8 4 5 4 7 10 8 5 5 8 7 4 9 9 9 8 7 8 8 7 6 4 1 5 6 8 8 8 7 7 7 7 7 7 7 6 6 4 3 3 4 5 5 4 5 6 6 6 6 7 8 9 9 10 10 11 12 12 12 12 13 14 14 13 13 14 15 14 14 13 13 12 13 13 13 14 13 13 14 15 15 15 16 15
12 7 9 8 1 5 5 6 9 7 8 8 6 4 0 7 8 8 7 8 8 8 7 5 1 5 5 7 8 9 8 7 7 6 6 7 8 7 7 6 4 4 4 4 4 5 5 6 6 6 7 7 8 9 9 11 12 12 12 12 12 13 13 14 14 14 14 14 14 13 13 13 14 13 13 13 13 13 12 13 15 16 16 15 15 15 15
3 5 8 5 5 3 6 11 6 2 5 3 3 5 4 6 8 9 6 6 7 6 6 5 5 5 6 6 7 8 7 7 6 6 6 6 6 6 4 4 6 5 4 4 5 6 6 7 6 7 8 9 10 10 11 13 12 13 12 12 13 14 14 14 14 15 15 15 14 12 13 13 14 14 13 13 13 13 14 14 15 16 16 15 15 15 15
5 9 10 4 2 4 11 10 3 7 1 3 2 5 5 3 7 7 7 5 6 6 6 6 5 6 7 6 7 7 7 6 6 6 6 6 6 5 3 4 5 4 3 4 5 6 6 6 6 7 8 10 11 12 13 12 11 12 12 13 13 14 14 14 15 13 14 14 14 14 14 14 14 14 14 14 13 13 13 14 14 14 14 14 14 14 14
5 4 5 6 2 3 11 4 7 3 3 2 2 2 6 6 6 6 5 7 7 7 6 7 7 6 6 6 7 7 7 7 6 6 5 5 5 4 3 4 5 4 4 5 6 6 6 7 7 8 9 10 12 13 12 11 12 12 13 13 14 14 14 14 14 14 14 14 14 14 13 13 14 13 14 13 13 12 12 12 13 13 13 13 12 13 13
1 4 1 2 2 4 7 3 4 3 3 2 1 4 4 4 5 5 4 7 7 7 6 7 6 5 6 6 6 6 7 6 7 6 5 5 4 3 3 3 4 4 4 5 6 7 7 8 8 8 9 10 12 12 12 11 12 12 13 13 14 15 14 14 14 14 15 15 14 14 13 12 12 12 12 12 12 12 11 11 11 11 12 13 13 13 11
7 4 8 8 6 7 8 3 2 2 3 3 2 3 3 4 4 5 3 4 7 7 7 6 5 6 5 6 6 6 6 5 5 4 4 4 3 3 3 4 4 4 5 5 6 8 9 8 8 9 11 11 11 11 11 12 13 13 13 13 14 14 14 14 15 14 14 13 12 13 13 11 10 10 9 10 11 12 11 11 11 11 12 12 12 11 10
9 3 4 3 5 7 9 7 5 5 4 2 2 4 4 5 3 2 5 5 6 6 6 5 5 6 7 7 7 6 6 5 5 4 4 3 3 4 3 3 4 4 5 6 8 9 9 9 10 10 11 11 12 12 13 14 13 13 13 13 14 14 15 14 13 13 13 15 15 12 11 11 11 10 11 12 12 12 13 12 12 12 12 11 11 10 11
3 5 4 5 5 5 6 5 2 3 5 6 5 4 4 3 4 4 4 1 5 5 4 6 5 6 6 6 6 5 6 5 4 4 4 3 3 2 2 3 3 4 6 7 9 10 11 10 10 11 12 12 12 13 13 13 12 12 13 14 14 15 14 12 12 12 12 12 11 11 11 12 11 10 11 12 13 13 13 12 9 10 9 11 11 8 8
7 3 5 9 6 5 7 10 7 5 3 4 6 5 4 3 4 5 6 6 5 5 5 5 5 6 6 6 3 5 5 5 5 5 4 3 2 2 3 3 4 5 6 8 9 10 10 10 11 11 12 12 12 12 12 12 12 12 14 14 14 13 12 12 12 12 11 12 12 12 12 13 13 12 13 13 13 12 12 12 13 5 1 5 4 5 7
1 5 5 5 4 6 2 5 8 6 5 4 5 4 5 5 5 6 7 8 7 7 6 4 4 7 7 7 6 6 6 6 5 5 3 2 1 2 3 4 5 7 8 9 9 10 10 10 9 10 11 12 12 12 12 12 12 13 13 13 13 12 12 12 12 11 11 11 11 12 13 13 11 10 11 10 10 15 16 16 9 5 3 4 5 5 6
5 8 9 6 6 7 5 4 3 4 4 3 3 2 2 4 5 5 6 7 9 8 7 6 5 6 7 6 5 7 7 6 6 4 3 2 2 2 3 4 6 8 9 9 9 9 9 9 10 11 13 13 12 12 11 11 11 12 13 12 12 11 12 12 12 11 10 11 12 11 11 10 9 8 9 11 11 0 2 2 4 4 2 6 7 9 9
1 6 6 8 6 7 6 5 4 4 3 2 1 3 4 5 5 5 6 7 8 9 8 7 7 6 7 6 6 7 7 6 5 4 3 3 3 3 4 5 6 7 6 7 7 9 9 10 11 13 13 12 11 11 12 11 11 12 12 12 12 13 12 12 10 10 10 9 10 11 11 10 9 7 8 8 8 4 2 2 5 7 6 5 7 9 10
4 4 5 4 5 4 4 4 2 2 2 2 2 3 4 5 7 7 8 8 7 7 8 8 8 8 7 7 7 7 7 6 5 2 2 2 3 3 5 5 5 5 6 8 10 11 11 12 13 13 13 12 12 12 12 11 11 11 12 12 13 11 11 12 12 11 11 10 11 10 8 8 9 9 8 5 5 6 6 4 2 4 7 5 5 8 9
3 3 2 1 3 5 3 2 3 3 3 5 6 7 8 9 8 7 7 7 7 7 9 9 9 9 8 7 8 6 6 6 4 3 2 2 3 4 4 3 5 6 8 9 10 11 12 12 13 12 12 12 12 12 12 12 12 12 12 12 12 14 17 13 9 9 9 9 11 9 6 7 7 7 6 6 5 5 6 6 7 7 8 8 7 8 8
5 3 1 4 3 2 1 3 5 3 4 6 7 9 10 9 9 10 10 9 8 9 8 9 9 9 8 7 7 7 6 4 3 3 3 3 3 3 2 4 6 8 8 10 11 11 11 12 13 12 12 12 12 12 12 12 12 12 12 11 11 10 11 11 10 10 10 9 10 8 5 4 5 6 6 5 6 6 6 7 7 8 8 8 7 8 11
4 3 2 0 3 5 6 5 2 4 6 6 7 9 11 11 11 11 10 9 10 10 9 8 7 7 7 7 5 5 5 4 4 3 3 2 2 2 3 5 7 8 9 10 10 10 12 12 12 12 12 12 12 12 12 12 12 11 11 10 10 10 10 9 9 9 9 8 6 6 5 6 6 6 7 8 8 7 8 8 8 8 8 8 7 8 9
2 1 1 3 2 2 4 7 6 6 6 7 8 10 11 12 11 10 10 11 10 9 9 9 8 7 6 6 5 5 5 4 4 3 2 1 2 3 4 6 8 8 8 9 9 11 12 12 12 12 12 12 11 11 11 11 11 12 12 11 10 9 9 10 9 8 7 6 5 7 6 6 6 7 7 7 8 8 9 9 9 10 8 7 9 7 8
3 3 3 3 2 2 5 8 6 6 8 9 10 11 11 11 10 10 10 10 9 9 10 8 8 8 7 6 6 5 5 4 4 3 2 1 2 3 5 7 7 8 8 8 10 11 11 11 11 12 11 12 11 11 11 11 11 11 10 9 9 11 14 14 9 7 6 5 5 6 6 7 7 7 8 7 8 9 9 9 9 10 8 8 8 10 10
3 4 2 1 2 5 8 7 7 8 8 10 11 12 12 12 12 12 11 10 10 11 10 10 9 8 7 6 6 5 5 4 4 3 1 2 3 3 5 6 6 7 7 9 10 10 9 11 12 13 12 11 10 11 10 10 10 9 9 10 9 9 8 10 8 7 5 6 7 8 8 7 7 8 8 9 10 11 9 8 7 8 9 9 9 12 12
5 5 5 5 5 6 8 7 9 10 11 12 11 10 9 9 9 10 10 11 11 10 10 9 8 8 7 7 6 6 5 4 4 3 2 2 3 4 5 5 6 7 8 8 10 9 9 10 12 12 11 10 11 11 11 10 9 8 8 8 9 7 7 7 9 7 8 8 8 8 7 8 8 8 9 11 10 7 8 7 8 9 9 10 10 10 10
8 8 6 7 8 8 11 12 10 9 9 9 8 7 8 8 8 10 11 11 12 11 10 9 9 9 7 7 6 6 5 4 3 2 3 2 3 4 5 5 6 7 8 8 10 9 8 9 12 11 11 10 10 11 10 9 8 7 8 8 8 7 7 7 8 8 8 9 9 9 9 10 10 10 10 9 7 7 10 11 12 9 10 10 9 9 13
9 10 11 11 11 12 10 9 8 9 9 9 9 8 8 8 10 10 12 12 12 11 10 10 9 8 8 7 7 6 5 4 4 3 2 3 4 4 5 5 7 7 8 8 9 9 10 11 12 12 10 10 10 11 10 9 8 8 9 8 8 8 9 9 9 9 10 10 8 8 9 11 11 11 11 9 9 8 9 12 12 10 11 10 10 9 11
10 10 10 10 10 10 9 9 8 9 9 9 9 9 9 10 12 13 13 12 11 12 11 10 9 9 8 7 7 6 6 5 4 3 3 3 4 4 4 6 7 8 8 8 9 9 10 11 13 12 9 8 9 11 10 9 8 8 9 9 8 9 9 10 9 10 9 8 9 10 10 12 13 11 10 8 9 9 9 11 12 11 9 9 9 10 9
10 11 11 10 9 10 10 9 7 7 8 7 8 9 10 11 12 12 12 12 12 12 11 10 10 9 8 8 7 7 6 5 4 3 3 3 4 4 5 6 7 7 8 8 9 10 11 11 12 12 9 8 9 10 11 14 8 7 7 8 9 9 9 8 8 9 10 10 10 11 11 11 11 10 9 8 9 10 9 10 12 12 12 11 10 10 10
11 11 12 11 10 10 10 9 7 6 6 7 8 9 11 12 12 12 12 12 12 12 11 10 10 9 9 8 8 7 6 5 4 4 3 4 4 5 6 7 7 7 7 7 8 9 9 10 11 10 9 9 10 10 11 15 13 9 8 9 9 9 9 9 9 9 10 9 10 9 8 8 8 8 8 8 8 8 8 9 10 9 10 10 10 9 9
12 11 11 11 10 10 9 8 7 7 8 10 10 10 11 12 14 14 13 12 12 12 11 11 11 10 10 9 8 7 7 6 5 4 4 5 4 6 7 7 7 7 6 6 7 8 9 10 9 9 9 9 10 11 13 15 15 10 8 8 9 9 10 9 10 10 10 9 7 8 8 8 8 9 8 7 8 10 12 11 10 11 11 9 9 9 9
11 10 11 11 11 10 9 9 8 8 8 10 12 13 13 14 14 14 14 13 12 12 11 12 11 10 10 10 9 8 7 6 5 5 5 5 5 5 6 7 8 7 7 7 7 7 9 11 10 9 9 10 10 9 10 12 12 9 8 8 9 9 9 10 10 9 9 8 9 10 9 9 9 8 7 7 7 11 11 10 9 10 11 9 9 8 8
11 9 9 10 10 9 9 9 9 9 9 10 11 13 13 14 15 15 14 14 13 12 12 11 10 10 10 10 9 9 7 6 6 6 5 5 6 7 7 8 7 7 7 7 6 6 7 9 9 10 10 10 10 10 9 12 10 10 9 8 9 10 10 9 10 10 9 8 9 10 10 8 8 8 8 8 6 7 10 11 12 11 11 11 10 9 9
10 8 8 8 8 8 8 8 9 10 10 10 12 14 14 15 15 15 15 14 13 12 11 10 11 11 11 11 10 9 8 8 7 7 6 6 5 6 8 8 7 7 7 6 7 7 7 8 8 7 7 8 8 12 11 10 10 10 11 10 10 10 11 10 10 9 8 8 9 8 8 8 8 7 7 7 6 5 9 11 11 11 11 11 10 9 9
10 9 7 7 6 7 8 9 10 11 12 11 13 13 15 15 14 15 15 14 14 13 12 12 13 13 12 11 11 10 9 9 9 9 8 8 7 7 7 7 6 7 8 8 8 8 7 7 7 7 8 7 6 7 7 8 9 10 11 11 12 12 12 11 10 8 7 7 8 7 7 7 6 5 5 6 6 8 9 10 10 10 10 9 9 9 9
10 7 5 4 4 6 8 9 11 12 12 12 13 14 15 13 14 15 15 14 14 13 13 13 13 12 12 11 10 9 9 9 8 8 8 7 7 7 7 7 8 9 11 9 9 9 8 7 7 7 7 6 3 5 7 7 7 9 9 9 9 9 8 8 7 7 8 7 7 7 6 6 6 7 7 8 8 9 9 9 9 9 9 9 9 9 9
9 7 5 5 5 6 8 9 12 13 13 14 15 13 13 14 14 14 14 14 14 13 13 13 12 12 11 10 9 9 8 7 7 7 7 7 7 7 6 7 7 8 9 10 9 9 9 8 7 7 5 5 5 6 7 8 8 8 8 8 9 9 8 8 8 8 8 8 8 8 7 7 7 7 8 8 8 8 8 8 8 8 8 8 8 8 8
8 7 5 3 5 7 7 10 11 13 15 16 15 13 13 13 14 13 13 14 14 13 12 12 12 12 11 10 10 9 8 7 6 4 5 5 6 7 6 7 7 7 10 10 9 9 7 6 6 6 7 5 8 8 8 8 8 9 9 9 9 9 9 9 8 8 8 8 8 7 7 7 7 8 7 8 8 8 8 9 8 8 8 8 8 7 7
6 5 3 3 4 7 9 10 12 14 17 15 14 13 12 13 13 12 12 13 13 13 12 12 12 11 10 11 10 9 9 8 8 7 7 7 7 7 8 8 7 6 6 6 7 7 7 7 5 5 6 6 9 8 8 8 7 7 7 8 8 8 8 8 8 8 8 8 8 7 6 6 6 6 6 7 7 7 7 7 7 7 6 7 7 7 7
5 4 2 2 5 7 9 11 13 13 15 14 14 13 14 13 13 13 13 12 12 12 12 11 10 11 11 11 9 8 8 8 9 8 7 8 8 8 7 6 7 11 11 9 8 7 7 5 3 4 7 4 7 7 7 7 7 7 7 7 6 6 6 6 6 6 6 6 6 6 6 6 6 6 6 6 6 6 6 6 6 7 7 7 7 6 6
4 3 1 3 6 8 10 12 10 11 10 12 14 13 14 14 14 13 12 13 13 12 11 12 12 11 10 9 8 8 7 6 6 7 7 7 7 7 7 8 10 10 6 6 6 6 4 1 1 3 4 5 6 6 7 7 7 7 7 7 7 6 6 6 6 6 6 6 6 5 5 5 5 5 5 5 5 5 6 6 6 5 5 5 5 5 6
2 1 3 5 6 9 11 11 10 9 9 10 11 12 13 13 13 12 12 12 11 11 11 11 10 10 9 8 7 7 7 6 7 7 6 7 8 8 8 7 6 1 3 6 6 5 7 5 4 4 2 4 5 5 5 5 5 6 6 6 6 7 6 5 5 5 5 5 5 5 5 5 5 4 4 5 5 4 4 4 5 3 6 2 5 4 4
3 4 4 4 6 7 9 9 9 9 9 9 11 11 12 11 11 12 12 12 12 11 11 11 10 10 9 8 8 8 8 8 8 7 6 7 7 7 7 6 6 5 4 3 5 5 5 4 4 3 3 3 3 3 4 4 4 4 3 4 3 2 3 3 4 5 5 4 4 4 3 3 3 3 3 4 3 3 3 4 4 4 4 5 4 5 5
4 4 3 4 6 7 6 7 8 8 8 9 10 11 10 10 12 12 11 12 11 11 12 12 11 10 9 9 8 9 8 7 7 7 7 7 7 7 6 6 6 5 5 4 4 3 4 5 4 3 3 1 4 4 5 2 1 4 3 2 2 3 3 2 2 3 2 1 1 2 2 3 2 2 3 3 3 3 4 4 4 4 4 5 5 4 4
Wind_Direction
237 250 342 194 217 239 249 225 207 201 198 203 215 221 231 208 237 265 213 175 230 264 270 270 48 34 313 300 252 104 87 131 146 152 164 171 168 163 165 165 171 168 163 160 162 166 170 170 172 174 174 177 193 206 223 235 236 240 238 237 238 241 244 249 254 259 264 264 258 255 251 249 250 251 253 255 255 257 258 264 269 268 268 270 270 270 267
231 229 234 237 233 224 240 247 208 199 197 200 212 217 205 221 239 114 126 182 243 265 315 14 36 22 355 21 70 152 198 193 170 174 169 166 161 158 152 153 160 161 159 159 164 167 169 176 176 180 188 203 217 235 244 245 245 245 241 241 248 253 256 258 259 259 258 255 254 251 249 251 253 254 255 257 259 261 263 265 267 268 269 271 271 268 268
230 222 219 221 226 232 236 229 222 204 200 204 212 202 165 187 177 207 145 181 246 116 33 14 23 8 33 67 157 203 136 180 175 181 166 154 149 137 130 142 148 141 142 151 161 168 171 178 181 177 223 233 234 240 250 256 254 250 250 263 264 266 265 264 265 262 258 255 253 253 255 256 258 260 261 262 264 266 268 268 269 272 274 272 270 269 267
227 210 214 216 224 233 242 215 203 194 193 198 187 212 180 207 207 202 221 240 254 104 51 76 62 70 30 49 69 141 144 169 147 159 144 133 135 140 135 133 136 146 159 159 162 164 163 187 216 232 236 254 278 258 245 245 341 345 283 260 259 260 262 262 258 256 255 257 255 256 258 261 264 266 266 266 269 271 272 274 276 278 276 272 272 272 270
227 201 208 209 211 226 233 225 202 198 206 223 188 135 176 225 224 204 222 266 61 60 37 293 99 49 91 79 57 70 89 89 117 128 132 141 142 125 135 139 149 153 155 157 157 180 187 79 69 65 40 208 127 42 24 27 348 249 251 260 268 266 263 261 261 262 264 265 267 267 269 270 271 272 273 274 275 278 278 280 281 277 275 275 273 272 271
213 172 199 198 210 218 221 102 79 207 210 186 195 195 192 177 215 296 5 43 66 77 135 82 66 74 66 59 82 32 37 103 119 129 114 106 114 120 129 139 144 148 152 156 112 77 79 87 87 91 72 56 48 43 31 226 258 265 276 273 268 270 270 268 271 273 272 272 272 273 276 276 277 278 278 278 280 280 281 280 278 276 275 274 273 271 271
204 167 181 203 217 222 82 79 75 70 73 144 199 79 155 164 199 218 221 210 121 82 66 77 79 82 90 72 79 77 74 78 103 114 111 115 110 112 130 138 143 126 108 91 98 96 85 79 75 83 85 64 48 209 262 292 272 273 271 277 275 278 279 277 276 277 277 280 282 282 281 280 280 280 280 282 283 283 282 281 280 278 277 277 275 274 273
182 193 198 216 214 90 108 91 102 90 101 119 161 193 197 199 199 191 205 140 110 134 126 107 109 107 100 93 86 90 93 70 110 125 123 125 125 120 106 111 97 102 95 88 81 81 85 84 91 76 67 19 328 317 300 289 290 285 288 287 288 288 287 287 287 289 287 286 284 284 284 283 283 283 284 284 285 285 283 281 278 278 277 275 275 275 274
205 213 210 220 83 142 139 132 180 180 178 179 200 231 184 180 178 183 180 145 144 132 121 125 128 138 138 111 92 91 108 108 90 98 111 115 111 101 102 95 97 83 84 85 92 109 97 94 84 60 23 355 328 315 310 312 310 305 300 297 295 295 293 292 292 292 291 291 290 287 286 286 284 284 285 285 284 283 282 281 281 279 278 277 278 277 277
222 217 212 219 222 229 180 177 149 169 128 182 163 262 129 158 171 187 174 169 148 138 136 137 141 173 200 215 123 121 120 121 108 98 99 104 102 98 91 91 87 90 91 109 100 51 87 104 70 46 2 340 323 317 320 317 312 308 302 298 299 296 295 296 295 295 293 291 289 287 287 286 286 285 285 282 281 281 281 282 280 280 280 279 277 275 275
206 215 223 216 224 232 234 161 150 139 137 147 121 234 210 177 183 175 182 166 154 154 152 147 166 199 240 240 114 129 127 129 123 116 114 109 102 94 93 97 98 95 82 47 44 89 48 43 24 12 348 334 326 324 317 313 308 302 299 299 300 301 299 298 296 293 290 288 286 288 288 287 287 287 286 285 285 283 280 279 280 279 278 278 278 278 276
210 218 216 223 230 182 98 127 139 134 122 141 180 219 222 149 174 167 178 163 159 151 146 153 175 229 257 330 109 133 133 126 116 123 118 109 100 96 94 87 89 95 104 124 79 40 33 22 359 352 339 330 326 315 311 308 302 299 300 302 302 300 296 294 293 292 290 288 289 288 288 288 288 286 287 285 284 284 283 283 283 284 283 283 282 281 280
217 231 227 236 158 87 104 116 120 118 121 167 204 231 80 149 154 161 164 160 151 147 154 173 199 116 53 73 108 123 128 127 116 102 93 91 98 102 98 92 94 89 60 31 6 6 20 360 349 344 338 327 317 314 308 303 299 302 304 302 299 295 294 293 292 290 291 291 291 291 289 289 289 288 287 287 288 287 287 286 285 285 284 283 282 280 278
218 214 247 233 325 49 106 104 113 125 164 193 221 72 175 139 141 145 163 152 147 158 166 182 106 106 111 116 129 135 142 135 120 119 112 107 94 89 87 78 52 39 18 14 352 350 355 346 345 338 329 319 313 310 305 300 302 304 302 299 297 296 294 293 293 292 291 291 291 291 291 291 291 290 289 290 289 287 287 287 286 284 283 281 279 279 279
164 196 242 245 235 118 165 128 108 329 248 81 123 115 85 127 138 142 136 146 148 162 159 160 113 132 128 150 147 145 140 137 137 130 119 108 103 94 79 73 57 21 11 352 351 350 340 343 338 329 321 312 309 306 301 304 306 304 305 302 300 297 295 294 294 293 293 293 294 294 295 295 295 294 293 290 286 286 285 284 282 281 280 280 280 281 282
227 210 210 228 39 168 173 175 154 196 354 37 148 133 113 115 135 140 137 138 154 163 163 161 146 135 134 137 142 141 141 133 125 114 109 104 98 91 72 51 37 21 1 351 341 337 331 331 326 319 317 309 307 305 303 309 309 307 303 300 300 299 297 296 296 295 295 296 297 297 296 298 297 294 291 289 287 285 283 283 282 281 281 282 283 284 285
283 1 42 86 176 215 187 180 18 181 173 345 354 79 135 150 133 145 156 140 154 169 159 155 148 152 156 154 159 155 146 143 138 126 110 93 88 75 56 47 38 14 357 340 326 322 324 322 322 318 312 308 305 303 306 309 307 304 303 302 302 300 300 300 299 297 298 297 297 297 297 296 295 292 291 290 288 286 284 282 282 284 285 286 287 287 285
155 208 72 127 127 173 183 174 33 28 118 3 323 161 165 126 136 163 156 150 151 151 157 159 166 173 163 162 159 147 143 136 110 102 107 104 102 103 87 70 27 358 341 325 321 319 319 321 319 316 311 307 305 306 311 310 305 305 306 304 302 302 300 299 299 300 299 298 296 296 296 295 292 289 288 289 286 287 285 283 282 283 286 286 284 282 283
188 215 171 198 142 142 186 166 105 79 357 352 342 68 71 117 148 152 110 136 148 148 153 171 170 168 171 148 125 117 116 120 121 126 113 99 81 57 51 49 9 352 339 328 324 323 319 322 319 313 310 308 307 310 305 304 304 305 305 304 302 301 302 303 302 300 300 299 300 299 296 291 289 287 286 284 285 284 284 287 287 286 286 285 286 291 285
220 249 145 142 113 141 174 186 163 169 162 148 53 54 52 52 57 95 120 133 144 153 172 178 184 177 169 156 150 155 145 133 134 126 112 99 89 71 54 31 6 337 331 327 323 323 319 318 317 312 312 310 311 311 309 307 308 309 307 304 303 303 304 305 304 302 298 297 296 295 295 297 294 293 289 288 285 283 283 284 285 286 289 291 289 286 297
155 97 130 128 134 150 186 184 206 140 152 152 132 95 73 78 106 102 95 113 140 168 164 173 178 165 158 156 156 143 116 130 121 107 99 81 74 50 25 2 348 339 331 326 322 320 317 317 315 315 313 310 311 310 309 313 319 314 307 304 303 303 303 302 301 300 298 300 300 297 297 292 288 284 287 285 282 283 285 281 283 289 292 292 296 312 310
219 207 150 164 171 155 171 197 197 189 166 152 142 131 138 140 141 136 123 106 95 106 127 147 157 153 133 115 129 119 117 114 106 106 95 84 60 45 16 344 345 336 335 329 323 320 317 319 318 314 314 313 313 313 315 315 316 310 308 306 304 302 302 301 301 301 305 304 301 298 294 292 293 293 278 264 262 271 278 283 284 331 83 280 305 308 301
1 43 133 80 61 91 56 199 189 186 145 152 144 164 175 162 155 153 141 127 117 118 121 128 136 122 130 126 130 133 123 109 99 86 83 74 46 28 4 351 350 341 333 326 323 321 321 319 312 313 316 315 316 316 315 314 312 309 309 307 306 305 303 301 306 309 305 300 296 291 291 289 287 286 296 290 251 242 247 260 303 352 282 280 285 276 283
102 26 26 14 50 110 125 87 64 100 121 155 147 167 172 143 147 163 157 140 132 125 121 117 118 130 133 136 135 114 109 113 109 107 95 88 39 17 7 356 347 335 332 332 327 324 321 318 317 319 318 319 320 316 319 319 317 312 310 308 305 304 303 304 308 307 302 298 301 299 300 303 300 299 303 304 303 314 83 168 185 190 235 269 273 273 276
18 18 0 7 6 17 31 37 45 71 102 232 215 136 115 131 163 171 147 136 141 141 142 131 121 126 127 118 114 115 112 103 97 99 98 72 52 15 2 353 346 341 334 330 327 326 324 323 323 321 319 320 323 325 323 321 316 311 309 308 304 301 301 303 304 302 301 300 299 304 305 306 305 301 301 307 301 324 57 173 189 206 217 257 288 303 303
75 66 26 348 332 354 6 338 0 66 117 182 130 174 158 162 153 155 141 144 145 149 141 136 126 116 113 113 112 113 110 105 97 90 62 39 29 15 3 357 347 338 333 328 328 330 329 326 324 323 322 325 331 330 324 320 315 310 313 311 308 303 304 309 307 305 305 302 303 300 299 303 302 297 311 332 359 7 351 337 288 240 223 245 348 347 341
86 89 106 310 304 300 304 298 273 284 190 210 198 173 155 139 141 139 132 138 140 135 131 128 121 119 114 111 109 105 107 114 115 95 75 66 36 17 5 344 343 335 327 333 332 334 332 326 325 327 329 334 330 327 326 323 319 316 313 311 308 309 309 309 302 300 295 294 297 296 311 324 328 358 7 15 22 13 4 350 2 3 10 17 9 9 351
85 104 202 211 222 260 297 248 265 288 198 192 184 169 150 146 144 138 134 130 125 121 123 127 128 129 124 124 123 118 122 117 100 92 78 47 29 29 354 347 328 332 334 335 334 336 332 330 330 331 329 333 333 329 327 326 321 316 315 314 315 310 310 308 308 304 302 304 319 328 350 343 355 8 7 20 26 25 27 23 21 19 24 15 2 357 2
63 84 97 182 290 312 326 338 275 223 198 184 180 164 157 161 165 160 154 146 135 130 130 129 125 125 125 125 122 119 119 114 105 90 72 51 14 11 348 340 334 335 338 340 338 337 333 335 333 331 332 338 333 332 328 325 320 319 321 318 317 316 313 315 311 306 308 319 321 337 3 13 16 20 29 40 36 39 41 42 41 40 31 23 15 14 14
274 292 230 269 312 338 310 292 258 215 187 182 178 177 175 170 169 170 159 151 152 145 137 132 130 125 122 117 117 121 115 107 102 103 81 45 13 350 349 341 335 341 342 346 342 339 339 338 337 336 338 337 335 333 331 328 325 322 322 324 321 317 312 311 304 305 309 307 322 358 21 33 41 48 49 47 50 47 49 50 49 46 36 26 25 15 19
157 175 213 206 228 278 270 269 267 227 202 186 195 185 180 183 172 159 155 150 149 142 140 138 132 128 124 116 113 107 111 116 118 100 79 56 20 352 347 351 351 348 348 346 342 342 343 342 341 340 340 339 342 336 335 331 328 327 331 329 325 312 314 316 311 311 310 329 13 19 42 50 54 52 60 63 60 60 59 55 47 47 38 29 18 27 28
270 267 235 192 219 221 232 229 228 221 210 205 196 193 184 183 177 166 156 155 150 145 141 136 137 131 124 121 121 122 121 123 109 107 95 25 7 356 351 355 353 352 347 348 345 344 350 348 346 344 346 348 343 343 341 343 335 338 336 329 325 323 329 333 338 340 352 25 40 47 55 67 65 63 65 68 67 62 56 52 49 51 48 37 32 35 31
252 234 225 222 221 237 232 220 224 223 209 201 203 196 191 194 178 159 151 147 141 143 141 137 131 127 127 129 131 132 129 119 118 117 60 31 3 356 357 351 355 353 347 351 351 347 1 357 350 344 351 351 348 348 351 350 344 339 335 333 333 340 349 357 6 9 52 55 58 65 61 61 62 68 67 64 59 59 65 60 59 57 51 46 40 34 28
243 243 242 216 208 215 224 227 221 221 217 213 205 196 188 181 161 149 145 144 143 142 141 137 133 132 135 136 134 135 142 147 127 89 54 22 2 359 355 354 355 352 348 355 351 355 2 2 355 349 354 359 358 356 360 1 353 344 347 345 355 5 19 29 34 47 54 66 63 60 63 68 70 69 67 65 65 66 67 66 64 55 57 50 43 38 30
252 249 248 248 233 232 236 235 217 217 209 200 195 186 171 155 148 146 144 147 146 140 134 131 132 137 137 137 137 137 129 109 94 71 53 16 8 1 354 355 353 347 354 0 359 356 357 8 2 358 358 7 7 7 6 9 3 356 2 4 15 33 42 47 49 53 59 58 56 61 67 69 70 68 68 65 59 54 63 67 64 59 59 56 51 46 42
257 251 248 252 258 256 247 246 233 216 209 204 196 178 163 158 147 142 147 143 135 133 133 133 136 138 137 137 135 127 123 115 104 83 64 30 13 6 5 358 357 353 356 2 12 358 4 11 10 8 7 16 13 17 15 19 14 8 15 25 36 43 50 54 52 56 57 57 60 61 63 69 71 69 63 61 61 61 59 61 61 59 55 53 52 50 47
274 259 248 242 237 240 247 248 242 227 213 203 184 164 154 150 146 142 137 132 135 134 136 137 139 141 138 133 125 122 115 107 96 82 62 30 26 27 16 7 10 359 6 13 4 1 16 13 15 19 19 22 23 23 20 27 30 24 27 34 45 53 56 49 52 59 60 58 60 62 65 64 60 56 53 57 58 59 54 55 60 59 58 54 49 47 47
277 270 257 243 233 231 232 230 232 222 195 177 165 158 151 147 144 139 136 135 135 135 137 140 137 132 129 130 127 122 115 110 108 95 72 57 46 42 32 18 15 11 14 12 2 15 17 13 25 28 25 29 30 30 30 33 38 38 44 41 43 46 54 59 60 60 60 58 59 59 59 58 55 51 49 52 57 55 58 59 58 56 54 53 52 51 51
275 265 255 246 237 227 219 213 209 202 189 171 156 149 150 144 139 135 135 135 135 136 138 135 133 134 136 135 126 121 117 113 108 98 89 83 72 57 45 33 28 23 21 12 23 28 20 19 30 33 33 31 38 40 39 40 43 45 42 44 48 50 54 55 56 60 61 62 59 60 59 59 59 55 48 50 64 70 68 68 67 67 66 59 57 57 56
279 270 253 237 228 216 206 199 197 190 187 170 155 153 150 143 142 138 135 135 138 142 138 138 140 138 136 132 128 122 120 118 112 107 100 87 77 68 67 51 39 43 38 36 39 36 28 29 41 45 40 39 37 42 45 44 46 44 40 42 45 49 51 52 53 55 58 57 63 65 61 59 58 55 51 39 47 70 72 72 71 74 77 76 74 71 66
288 275 257 238 228 215 203 191 185 178 168 162 156 150 150 146 142 138 140 139 142 142 141 142 139 136 136 131 125 123 123 120 116 109 110 106 86 68 54 52 42 46 40 43 40 44 45 42 43 56 55 48 45 41 48 49 52 52 47 45 56 60 58 53 56 56 54 54 57 58 61 61 57 55 54 51 45 70 81 82 83 84 84 85 81 76 70
303 286 263 240 223 213 199 181 160 154 156 157 151 148 149 146 142 138 137 138 140 142 141 137 135 133 131 127 127 126 123 116 108 97 81 71 67 75 70 63 49 46 35 57 69 61 58 60 56 51 52 58 54 41 49 63 67 68 64 62 62 64 65 62 59 57 57 57 56 56 57 57 60 59 54 57 51 52 76 81 83 81 81 79 75 71 70
318 303 276 245 221 199 180 166 159 153 148 149 147 146 143 140 133 132 136 140 141 140 136 132 131 130 131 132 132 130 126 125 117 110 102 90 77 67 73 79 64 50 50 62 61 67 62 63 62 63 46 47 63 63 60 66 73 74 74 75 77 77 78 75 73 69 63 64 67 67 64 64 58 43 26 29 48 65 72 74 75 75 75 72 71 71 70
314 308 285 251 211 179 165 156 149 144 143 146 145 141 140 135 136 137 140 142 141 139 138 139 140 139 138 138 138 134 134 136 137 131 122 115 102 87 77 77 76 65 55 65 63 67 67 67 70 70 57 44 67 95 82 77 80 79 77 76 76 77 76 76 71 71 69 70 69 68 65 60 52 49 48 52 60 62 63 66 71 76 77 78 78 77 76
318 308 292 248 206 188 173 156 151 146 139 137 145 139 133 132 135 138 140 141 141 139 141 142 143 142 143 144 141 139 141 143 141 141 136 124 116 109 115 110 90 83 77 74 74 74 75 75 69 61 47 40 66 74 76 76 76 74 75 78 79 79 79 77 78 75 74 73 72 69 67 65 64 61 61 59 57 59 59 61 63 62 62 62 63 61 58
321 314 294 238 197 185 175 159 148 135 134 142 137 126 128 132 135 137 140 140 140 143 144 144 144 145 145 140 136 135 137 136 128 119 105 106 105 109 105 98 96 92 93 90 85 85 83 71 47 29 14 42 84 79 77 77 80 80 80 78 79 80 80 79 77 75 73 73 73 73 72 71 66 61 59 61 62 62 61 60 63 61 60 60 57 61 68
321 314 286 224 181 166 156 151 148 135 135 136 132 135 138 139 139 139 140 141 140 140 141 142 143 144 143 141 143 145 143 137 132 123 116 116 123 118 114 117 126 123 107 92 85 90 94 100 77 28 1 44 69 75 78 79 77 77 76 79 79 80 81 82 81 82 81 81 83 83 81 79 80 81 79 76 73 69 70 67 68 71 73 73 76 72 68
319 305 282 188 155 147 154 160 154 148 146 145 141 139 141 141 140 138 139 140 139 140 141 142 143 144 145 147 152 150 147 144 137 136 143 134 131 139 151 130 111 107 108 105 100 101 101 95 65 8 332 33 79 73 77 74 78 78 81 80 82 88 91 93 93 93 95 98 97 88 84 81 76 74 73 71 68 63 61 65 71 67 61 59 61 60 63
316 292 255 180 162 163 162 161 154 150 142 137 138 138 141 140 137 138 140 140 142 144 145 145 147 149 154 158 159 154 148 154 147 139 145 149 146 131 115 125 148 173 158 112 122 122 131 96 17 334 346 47 70 74 72 72 69 70 70 70 71 69 69 69 69 78 82 81 78 75 72 74 73 74 74 71 74 76 71 64 54 54 64 73 80 73 70
302 248 216 184 168 165 162 160 159 153 136 140 138 140 143 143 142 144 146 148 149 149 146 149 153 157 157 161 170 149 149 143 131 139 155 143 128 130 144 149 142 104 72 121 121 120 139 179 205 233 267 91 78 71 68 71 75 74 80 83 83 78 71 80 77 67 70 69 69 73 74 73 70 67 62 63 58 62 69 80 86 141 247 340 67 65 75
249 211 199 189 174 161 162 163 151 147 146 140 141 143 147 148 142 144 149 150 151 153 151 151 156 160 162 164 156 146 150 149 142 148 147 146 148 147 147 137 145 154 153 148 131 138 147 162 129 154 155 106 96 85 78 79 98 96 84 79 79 88 109 105 70 63 48 43 60 59 53 66 54 40 50 62 63 58 57 61 55 53 55 56 57 62 61
240 230 204 181 176 156 140 140 139 137 139 145 146 149 153 143 142 145 146 152 155 154 153 153 156 162 166 163 156 154 163 154 151 158 155 151 157 151 142 153 155 152 178 157 121 127 104 103 103 44 349 83 99 113 131 201 103 97 97 99 102 89 58 30 71 89 88 19 35 86 62 27 20 80 65 57 63 70 66 62 59 62 63 63 61 59 65